This is the latest recevied weather packets stored in our database for station/object IZ1GCT. If no packets are shown the sender has not sent any weather packets the latest 10 day(s).
| Time | Temp. | Humidity | Pressure | Rain* | Wind** | Luminosity | Snow |
|---|---|---|---|---|---|---|---|
| 1777661742 | 12.78° C | 71% | 1027.8 hPa | 0 mm | - | - | - |
| 1777661444 | 12.78° C | 71% | 1027.7 hPa | 0 mm | - | - | - |
| 1777661143 | 13.33° C | 70% | 1027.7 hPa | 0 mm | - | - | - |
| 1777660842 | 13.33° C | 70% | 1027.7 hPa | 0 mm | - | - | - |
| 1777660542 | 13.89° C | 68% | 1027.5 hPa | 0 mm | - | - | - |
| 1777660243 | 14.44° C | 66% | 1027.6 hPa | 0 mm | - | - | - |
| 1777659943 | 14.44° C | 65% | 1027.6 hPa | 0 mm | - | - | - |
| 1777659642 | 15° C | 64% | 1027.6 hPa | 0 mm | - | - | - |
| 1777659343 | 15.56° C | 63% | 1027.5 hPa | 0 mm | - | - | - |
| 1777659043 | 15.56° C | 63% | 1027.4 hPa | 0 mm | - | - | - |
| 1777658742 | 15.56° C | 63% | 1027.4 hPa | 0 mm | - | - | - |
| 1777658443 | 16.11° C | 61% | 1027.4 hPa | 0 mm | - | - | - |
| 1777658142 | 16.67° C | 60% | 1027.3 hPa | 0 mm | - | - | - |
| 1777657843 | 16.67° C | 60% | 1027.4 hPa | 0 mm | - | - | - |
| 1777657543 | 17.22° C | 59% | 1027.3 hPa | 0 mm | - | - | - |
| 1777657242 | 17.78° C | 52% | 1027.3 hPa | 0 mm | - | - | - |
| 1777656942 | 18.33° C | 50% | 1027.4 hPa | 0 mm | - | - | - |
| 1777656643 | 18.89° C | 46% | 1027.3 hPa | 0 mm | - | - | - |
| 1777656342 | 19.44° C | 45% | 1027.4 hPa | 0 mm | - | - | - |
| 1777656043 | 18.89° C | 44% | 1027.3 hPa | 0 mm | - | - | - |
| 1777655743 | 18.89° C | 44% | 1027.4 hPa | 0 mm | - | - | - |
| 1777655442 | 18.89° C | 41% | 1027.3 hPa | 0 mm | - | - | - |
| 1777655142 | 19.44° C | 41% | 1027.3 hPa | 0 mm | - | - | - |
| 1777654843 | 19.44° C | 41% | 1027.3 hPa | 0 mm | - | - | - |
| 1777654543 | 19.44° C | 41% | 1027.3 hPa | 0 mm | - | - | - |
* Rain latest hour (hover to see other rain measurements)
** Current wind speed in m/s (hover to see current wind gust speed)